Location: Cincinnati Observatory Center
(39.1389°N, 84.4225°W)
Time: 03:55:14
(UTC-05:00)

Daily predictions for brighter satellites

Satellite Brightness Start Highest point End
(mag) Time Altitude Azimuth Time Altitude Azimuth Time Altitude Azimuth
ADEOS II 4.2 03:44:58 10° NE 03:47:40 22° ENE 03:47:40 22° ENE
Lacrosse 5 3.8 04:16:33 25° NE 04:16:33 25° NE 04:18:40 10° NE
ATLAS CENTAUR R/B 3.5 04:21:01 76° S 04:21:01 76° S 04:35:28 10° SE
CZ-4C R/B 2.9 04:27:47 49° E 04:27:47 49° E 04:32:44 10° NE
Cosmos 1656 Rocket 4.4 04:30:11 48° ESE 04:30:32 49° ESE 04:35:59 10° NNE
GEOS 3 Rocket 4.4 04:33:28 10° ESE 04:38:21 48° NE 04:39:30 41° N
Cosmos 2369 Rocket 4.0 04:41:22 20° N 04:41:22 20° N 04:43:26 10° N
CZ-4B DEB 4.5 04:35:09 10° NNE 04:39:45 63° NNE 04:39:45 63° NNE
USA 234 3.5 04:37:04 10° NE 04:43:33 63° SE 04:45:09 49° S
Okean O Rocket 4.1 04:41:22 10° N 04:41:51 13° N 04:41:51 13° N
Meteor 1-31 Rocket 4.3 04:46:34 10° NNE 04:50:08 34° E 04:50:11 34° E
Meteor 2-10 Rocket 3.5 04:54:32 71° SE 04:54:50 74° E 04:59:54 10° NNE
ATLAS 3B R/B 4.0 04:52:44 10° S 04:59:45 42° ESE 05:06:35 10° NE
Okean 1-7 3.6 05:00:19 49° SE 05:00:57 55° E 05:05:07 10° NNE
Cosmos 2221 Rocket 3.8 05:01:45 67° SE 05:02:06 71° E 05:06:39 10° NNE
ERS-2 4.4 05:02:54 10° N 05:03:55 18° N 05:03:55 18° N
Cosmos 1452 Rocket 3.4 05:07:58 70° WNW 05:07:58 70° WNW 05:13:12 10° NNE
ATLAS 5 CENTAUR R/B 3.5 05:09:45 22° NNW 05:09:45 22° NNW 05:12:39 10° NNE
Thor Agena Rocket 4.1 05:04:09 10° SSE 05:09:14 57° ENE 05:14:17 10° N
Nadezhda 2 Rocket 4.4 05:07:24 10° NNW 05:13:23 59° W 05:19:23 10° S
Cosmos 1943 Rocket 3.2 05:15:06 30° NW 05:15:06 30° NW 05:18:53 10° N
Feng Yun 1-1 Rocket 4.4 05:17:01 10° NNE 05:22:57 85° ESE 05:28:54 10° SSW
Cosmos 1782 Rocket 3.4 05:21:03 10° NNW 05:25:30 71° W 05:29:54 10° S
Cosmos 676 Rocket 4.2 05:27:56 46° W 05:28:07 46° WSW 05:33:12 10° S
ADEOS II 2.7 05:24:20 10° N 05:28:38 35° WNW 05:28:38 35° WNW
CZ-4B R/B 3.9 05:27:01 10° N 05:32:03 34° WNW 05:32:07 34° WNW
Cosmos 1417 Rocket 4.4 05:26:05 10° SSW 05:32:12 65° W 05:38:19 10° N
Cosmos 1140 Rocket 3.4 05:28:04 10° NNW 05:33:17 70° WSW 05:38:30 10° S
Cosmos 1745 Rocket 4.0 05:27:14 10° N 05:33:24 79° E 05:39:31 10° S
Cosmos 614 Rocket 3.8 05:30:16 10° NNW 05:35:24 88° WSW 05:40:32 10° SSE
SJ-6F 4.3 05:32:38 10° NNE 05:36:48 88° ESE 05:40:53 10° SSW
SKYMED 2 4.3 05:33:38 10° SSE 05:37:50 53° ENE 05:42:05 10° N
Meteor 1-20 Rocket 4.1 05:38:00 10° N 05:43:43 86° W 05:49:16 10° S
Okean-O 2.8 05:41:14 10° N 05:45:31 49° WNW 05:48:07 22° SW
Lacrosse 5 rocket 3.0 05:44:18 10° NNW 05:47:17 25° NE 05:50:20 10° E
Tiangong 1 1.7 05:48:10 36° NNW 05:48:28 38° N 05:51:15 10° ENE
USA 81 4.0 05:43:34 10° S 05:48:50 86° E 05:54:08 10° N
CZ-4B R/B 4.3 05:47:38 10° N 05:51:28 42° WNW 05:53:53 21° SW
Cosmos 1606 2.6 05:51:36 10° S 05:55:28 87° W 05:59:23 10° N
Okean 2 Rocket 3.4 05:52:52 10° NNW 05:57:01 42° W 06:01:09 10° SSW
Lacrosse 5 3.6 05:55:46 16° NW 05:57:23 18° NNW 06:00:50 10° NNE
Cosmos 1607 3.8 05:55:20 10° SW 06:01:26 79° WNW 06:07:38 10° NNE
Delta 2 Rocket 4.1 06:00:43 22° WSW 06:03:39 57° S 06:08:50 10° E
Cosmos 1782 2.9 06:00:35 10° SSW 06:04:25 49° W 06:08:18 10° N
Cosmos 2297 Rocket 3.5 06:01:25 10° N 06:06:47 42° ENE 06:12:07 10° SE
Okean 1 Rocket 4.5 06:06:33 10° N 06:10:44 41° ENE 06:14:51 10° SSE
Cosmos 1850 Rocket 4.2 06:05:51 10° NNW 06:10:59 50° WSW 06:16:04 10° S
Gblst 52 Del rocket 4.4 06:09:55 10° SW 06:15:36 86° SE 06:22:01 10° NE
Cosmos 2278 3.9 06:10:10 10° SSW 06:15:47 76° ESE 06:21:27 10° NNE
CZ-4C R/B 3.3 06:13:00 17° W 06:15:58 26° NW 06:21:00 10° NNE
Meteor 2-6 Rocket 4.1 06:11:11 10° SSW 06:16:30 63° W 06:21:53 10° N
Cosmos 2151 Rocket 3.6 06:12:31 10° NNW 06:16:56 56° W 06:21:18 10° S
Ariane Rocket 3.2 06:14:04 10° NNE 06:19:11 80° ESE 06:24:14 10° S
Meteor 1-31 Rocket 4.4 06:21:54 10° NNW 06:24:18 16° WNW 06:25:38 14° W
Cosmos 2219 3.9 06:19:32 10° NW 06:24:28 31° WSW 06:29:20 10° SSW
COSMO-SKYMED 1 2.9 06:21:49 10° S 06:25:56 42° W 06:30:04 10° NNW
USA 234 3.8 06:20:19 10° NE 06:26:20 41° NNW 06:32:21 10° W
Cosmos 2227 Rocket 2.3 06:21:37 10° NNW 06:27:19 82° ENE 06:32:59 10° SSE
SL-12 R/B (Aux Motor) 4.0 06:25:18 13° WNW 06:27:42 48° SW 06:29:38 10° SE
USA 238 DEB 3.8 06:22:53 10° SW 06:29:53 84° WNW 06:36:58 10° NNE
USA 238 3.8 06:22:58 10° SW 06:29:59 85° WNW 06:37:03 10° NNE
Cosmos 1633 2.5 06:26:44 10° NNW 06:30:20 64° W 06:33:53 10° S
Cosmos 1656 4.2 06:28:17 10° S 06:33:54 67° ESE 06:39:34 10° NNE
SL-24 R/B - RUBIN 2 4.4 06:31:56 10° NNW 06:38:02 78° ENE 06:43:21 10° SE
IDEFIX/ARIANE 42P 3.1 06:34:39 10° NNE 06:39:51 67° ESE 06:45:00 10° S
Cosmos 1331 Rocket 4.0 06:34:49 10° SSW 06:39:56 64° WNW 06:45:08 10° NNE
ATLAS 3B R/B 3.3 06:43:19 10° WSW 06:50:28 44° NW 06:57:24 10° NNE
Orbus 7S? 4.3 06:43:10 10° SW 06:52:41 80° NW 06:56:41 10° NE
